User: anonymous   Login
Location: Vancouver
(49.2500°N, 123.1330°W)
Time: 14:40:25
(UTC-07:00)
Language:

Cosmos 1408 Rocket - Orbit

View from above orbital plane
View from above orbital plane
View from above satellite
View from above satellite

Ground track
Ground track

The orbit data is extracted from the following two-line orbital elements,

1 13553U 82092B   18114.91282630  .00175730  00000-0  19866-1 0  9998
2 13553  82.5650 303.6398 0022668  91.6486  27.0403 14.85327671923278
Epoch (UTC): 24 April 2018 21:54:28
Eccentricity: 0.0022668
inclination: 82.5650°
perigee height: 597 km
apogee height: 628 km
right ascension of ascending node: 303.6398°
argument of perigee: 91.6486°
revolutions per day: 14.85327671
mean anomaly at epoch: 27.0403°
orbit number at epoch: 92327

The dashed part of the orbit path shows where the satellite is in the earth's shadow,  

DLR